Wind_Speed
12 11 18 22 23 28 32 37 36 33 32 33 33 31 25 19 12 7 5 6 12 18 26 27 25 32 30 26 32 28 25 34 42 41 40 32 31 30 28 24 20 18 18 15 12 16 16 18 16
9 10 15 21 21 28 32 33 34 34 33 33 34 32 27 21 16 10 5 5 11 15 22 25 26 34 38 39 39 34 35 34 35 33 34 33 30 30 31 31 29 26 24 19 14 7 12 15 15
6 10 14 19 22 29 28 31 32 33 33 33 34 32 29 23 18 10 6 7 9 13 20 23 29 34 39 39 39 38 38 36 34 34 33 32 31 30 32 30 31 34 30 24 20 12 15 17 12
5 8 12 22 21 21 23 27 31 32 31 34 34 33 29 25 20 13 3 6 7 9 13 19 28 30 32 35 37 37 37 34 31 31 27 27 27 27 28 29 25 25 29 27 19 15 17 16 20
6 7 8 5 8 11 15 25 30 32 31 31 31 33 31 31 22 17 6 4 7 8 7 11 19 26 29 32 35 35 35 33 29 27 24 28 32 29 26 29 31 26 24 22 22 19 24 24 26
7 5 7 9 8 12 16 22 29 30 30 28 31 32 35 37 27 19 10 3 5 9 9 7 11 16 23 25 27 30 28 27 28 27 23 24 27 26 26 24 26 25 26 20 25 20 25 31 38
7 4 8 6 5 9 15 21 25 28 30 29 29 32 34 41 31 23 12 5 4 5 9 9 10 11 13 18 22 25 24 20 21 26 24 24 26 26 25 26 26 26 26 24 26 27 28 31 35
10 10 8 7 5 6 16 18 22 26 30 28 27 30 35 38 32 26 16 5 5 5 8 10 9 9 11 12 16 21 21 23 24 23 24 23 23 23 23 22 24 26 26 28 28 33 33 34 32
13 9 10 10 10 8 12 16 19 24 28 27 26 28 33 35 34 27 17 6 5 4 9 10 9 7 7 11 13 14 18 25 29 32 34 32 32 26 25 25 27 32 33 29 32 36 38 35 30
18 13 13 13 11 8 10 11 16 22 25 25 25 26 29 33 37 30 18 11 8 7 10 10 8 6 7 10 12 11 12 14 16 19 20 21 22 26 31 24 21 25 26 26 25 27 26 25 18
23 19 18 14 11 8 9 10 13 18 23 22 23 25 26 30 36 31 17 15 11 5 5 4 4 5 8 9 10 13 13 12 14 14 13 14 15 15 16 17 17 16 18 21 22 21 18 17 20
29 27 20 16 16 10 7 7 9 15 19 20 20 24 27 26 34 30 20 13 13 15 13 10 11 12 9 12 13 11 11 12 13 13 11 11 12 13 12 12 11 11 12 9 8 12 15 18 15
31 29 24 21 18 12 8 4 5 12 16 18 17 21 26 26 31 30 21 13 11 14 14 16 16 18 15 14 12 13 13 10 11 14 15 15 15 16 15 16 10 6 7 11 10 10 10 9 10
34 32 28 26 20 15 8 7 5 8 13 16 16 18 23 24 27 31 24 14 11 13 17 17 18 19 18 16 17 18 17 18 20 23 22 21 25 23 21 4 12 10 6 5 4 3 3 3 2
38 35 31 30 23 19 10 2 14 6 10 13 14 17 21 22 24 30 25 18 12 13 19 20 21 21 22 24 25 25 23 22 24 22 23 24 25 25 39 27 11 3 3 4 5 7 7 10 16
43 38 35 32 26 22 15 14 16 4 7 10 13 14 18 19 20 25 25 22 18 12 16 18 21 23 23 20 21 21 18 19 19 15 17 20 20 20 20 15 11 12 14 15 14 12 17 24 32
47 44 41 38 31 25 17 12 15 9 8 6 11 11 14 16 18 21 23 18 19 19 13 15 18 22 23 21 18 17 17 17 20 22 23 22 21 20 22 26 23 22 20 17 16 17 28 34 32
51 48 48 41 36 30 24 12 22 15 11 3 8 6 11 15 17 18 23 21 18 16 17 18 18 20 21 23 19 20 21 24 25 24 22 23 24 27 28 29 28 19 17 20 21 27 32 30 32
52 55 49 48 42 38 35 32 22 21 16 6 3 3 5 10 15 16 20 23 21 19 21 23 19 20 20 20 22 23 26 26 26 25 31 27 27 26 28 30 36 12 13 25 30 31 28 30 28
48 56 57 53 49 45 41 38 31 28 22 13 6 1 4 5 10 13 17 22 24 22 21 24 25 22 21 21 24 25 27 30 29 29 28 28 24 23 24 28 21 18 11 25 28 27 26 25 23
50 55 61 57 53 49 48 42 40 28 23 17 12 6 4 5 6 9 17 18 22 24 24 26 27 24 24 25 25 28 27 28 28 27 26 22 23 22 19 23 27 25 19 15 20 21 20 19 18
56 53 60 63 60 56 50 47 45 35 30 23 18 12 7 8 7 9 14 19 22 22 23 24 25 24 22 22 21 21 23 21 21 19 18 18 16 14 20 19 19 23 36 14 18 18 16 16 15
57 53 57 66 64 59 58 54 48 42 35 33 23 19 13 9 11 12 11 18 20 21 20 23 21 19 19 17 17 17 16 17 16 12 10 10 9 8 9 9 9 10 10 8 11 13 13 13 14
59 60 56 61 69 66 63 61 57 49 40 38 28 25 21 15 15 14 15 16 16 22 21 19 24 23 22 20 16 12 13 15 13 11 12 13 12 10 7 5 5 8 7 7 6 10 10 8 13
57 62 61 62 69 73 68 64 61 58 50 41 38 32 27 22 18 17 18 18 16 20 24 19 22 25 26 24 27 28 29 28 29 27 26 24 22 21 19 17 14 12 12 10 7 7 10 9 13
56 62 65 67 68 76 72 69 63 62 54 51 45 38 33 28 22 21 21 22 20 20 22 20 17 15 23 22 25 28 29 28 29 29 29 31 33 34 34 32 28 25 23 22 21 16 10 7 10
57 59 67 72 68 73 76 73 68 69 59 57 50 43 38 34 29 25 25 23 23 20 21 17 19 14 15 16 17 20 22 24 24 22 22 24 24 24 25 24 25 28 29 29 31 29 27 20 13
57 64 68 70 73 72 75 78 73 74 65 59 55 48 42 37 34 30 29 26 25 25 24 23 20 21 19 18 15 16 15 13 13 17 20 19 17 16 16 18 19 21 21 23 24 26 27 29 26
49 62 70 73 72 75 75 80 80 79 72 65 58 53 48 43 40 36 34 30 29 27 28 28 25 24 20 17 14 14 13 12 11 12 11 13 12 12 12 12 12 13 15 16 16 16 19 22 24
26 55 68 72 77 83 80 83 84 83 78 70 65 59 54 51 46 44 38 35 33 32 32 29 27 25 23 18 15 13 13 11 14 11 10 9 9 9 7 7 5 7 11 12 11 12 14 15 16
Wind_Direction
7 21 12 28 31 25 18 16 15 15 17 20 23 22 22 20 25 19 35 117 164 180 180 166 179 182 158 159 179 192 216 222 222 230 227 233 232 228 229 241 248 234 227 234 252 276 300 311 306
12 18 17 30 30 22 18 13 16 14 17 21 23 17 21 22 29 39 66 101 147 171 188 183 179 184 174 178 189 188 189 203 220 223 224 227 232 236 244 248 245 232 229 242 256 305 294 298 298
359 0 14 24 26 12 3 9 16 13 14 17 21 19 18 20 23 42 65 122 136 169 190 190 182 184 195 199 204 202 207 212 226 230 232 232 235 236 238 237 233 230 234 242 256 241 263 294 254
327 338 359 31 357 12 351 5 16 11 15 15 21 21 17 16 19 25 66 119 129 151 169 194 197 198 200 207 212 216 220 225 226 224 222 224 227 229 225 225 229 230 234 241 253 262 257 244 216
301 313 345 49 347 10 355 6 10 8 9 15 17 20 23 20 13 19 20 140 167 151 158 177 190 198 207 212 217 220 223 225 224 222 227 219 218 220 220 222 225 233 242 254 259 268 232 220 236
272 281 309 322 348 343 357 6 6 9 7 14 17 19 20 19 15 16 17 74 148 167 165 168 180 192 202 205 209 210 209 214 222 219 221 219 216 222 234 226 229 243 245 260 271 258 248 246 244
240 252 289 307 325 318 347 351 1 6 5 8 7 15 19 16 16 16 16 59 119 135 165 169 167 176 189 196 203 206 210 215 220 221 229 225 219 227 233 237 245 253 256 257 244 238 231 239 249
225 218 250 272 283 326 340 342 360 0 5 7 5 14 19 13 18 18 14 55 83 150 158 168 153 174 180 188 198 207 209 210 223 225 239 234 237 241 244 239 239 245 249 243 238 228 233 241 258
219 219 250 254 272 305 335 336 360 355 3 6 10 12 12 14 18 18 19 38 70 100 158 139 145 159 178 187 190 200 211 222 227 227 231 236 230 228 239 241 241 237 237 229 226 235 245 258 263
206 209 234 237 264 300 335 348 357 356 359 5 13 14 14 13 18 18 28 36 55 116 138 134 140 152 178 187 192 205 207 202 206 212 217 222 226 230 225 216 209 212 217 222 231 243 244 254 264
206 211 220 227 245 300 326 335 5 358 354 5 14 17 14 13 16 18 31 39 55 100 167 213 223 201 210 197 197 191 189 193 196 196 201 195 199 203 210 217 226 229 229 234 242 243 242 266 274
210 217 227 227 227 248 301 326 11 356 353 2 11 15 11 14 15 19 29 40 64 89 90 87 100 110 136 151 153 166 177 180 184 183 188 190 188 189 196 201 202 206 215 220 245 253 259 261 291
214 216 220 230 229 241 248 292 1 1 352 356 8 16 11 15 13 21 27 47 72 88 74 82 93 94 103 125 146 145 144 149 149 149 150 150 140 135 134 132 163 168 213 219 233 262 276 303 296
216 215 214 226 230 228 235 257 329 359 347 354 8 17 10 12 13 19 29 44 69 88 79 77 81 98 103 113 124 128 129 122 119 126 131 132 134 136 108 358 174 171 209 273 297 290 271 259 94
220 217 214 220 223 217 218 122 286 337 330 356 1 16 12 9 16 16 32 46 77 79 81 89 83 88 96 101 111 119 123 124 125 122 126 133 135 135 130 184 190 169 125 121 132 130 128 115 106
218 217 214 211 218 213 196 193 234 274 291 340 357 15 15 12 17 10 32 46 55 80 80 86 86 88 95 108 117 120 129 129 136 130 135 139 139 141 143 137 123 121 126 123 113 109 115 115 116
215 213 215 213 212 209 186 184 252 249 254 323 347 12 20 22 25 9 24 50 54 66 81 84 94 91 95 99 109 114 116 126 123 129 134 137 138 136 120 115 107 104 113 117 106 114 123 117 115
215 213 214 214 212 198 178 197 223 235 239 285 336 2 29 27 30 22 23 45 52 74 76 81 94 104 100 103 103 116 121 126 126 128 131 131 130 120 120 111 91 61 101 99 107 120 118 115 115
215 213 213 216 211 200 190 194 211 234 217 237 289 324 38 33 33 33 34 50 64 67 73 76 90 112 113 110 103 111 114 119 121 128 122 126 123 125 116 108 100 100 97 111 107 123 118 110 116
217 211 212 213 213 202 198 196 193 213 211 223 210 257 112 59 41 45 51 60 68 71 77 80 86 98 106 110 110 111 117 120 122 112 121 111 112 109 106 109 106 87 93 112 111 114 114 112 108
220 213 211 211 215 209 202 198 203 208 205 219 201 218 136 137 80 61 73 78 76 77 79 81 84 92 108 113 116 117 125 127 127 123 121 113 106 107 112 102 99 123 81 115 124 122 125 117 109
222 217 211 209 212 214 209 205 209 210 213 218 205 212 195 164 150 98 91 93 93 86 82 77 83 86 103 107 112 114 121 129 122 122 115 116 107 106 114 93 103 110 141 133 111 123 120 121 122
222 219 215 211 212 213 213 207 207 208 215 219 217 205 199 194 178 139 117 103 105 99 95 89 85 86 96 107 104 108 96 122 114 108 94 108 109 98 103 109 102 93 110 118 123 146 134 122 119
221 218 217 216 211 212 215 212 210 214 211 215 213 205 200 200 190 169 152 126 117 116 109 99 98 100 100 96 101 108 84 83 82 91 98 101 103 94 101 106 111 104 101 128 138 142 163 134 111
222 219 217 216 214 213 213 216 213 214 211 215 216 209 202 200 198 190 171 156 143 127 114 113 117 103 104 101 103 103 103 101 98 98 98 96 96 95 93 92 98 108 106 107 113 134 156 158 118
227 219 216 218 214 214 212 215 216 216 211 211 213 208 201 201 199 199 191 168 167 148 134 132 129 126 110 104 109 109 104 102 100 97 97 96 93 89 85 83 81 80 79 76 78 90 110 117 96
226 222 216 218 218 217 211 213 215 219 209 208 209 206 202 203 198 205 194 183 178 176 168 157 148 140 131 125 116 116 112 107 107 105 103 98 93 86 79 73 76 77 75 73 68 68 78 90 106
226 221 218 216 216 219 214 214 213 220 213 206 209 206 204 202 197 202 199 190 183 181 174 173 170 153 142 132 116 128 126 117 118 121 118 112 106 98 88 82 84 79 83 82 80 75 78 80 85
229 222 217 215 213 216 218 214 213 216 216 205 210 209 205 203 197 201 199 194 189 182 176 165 165 165 162 160 152 141 132 112 145 135 135 137 124 113 100 95 98 89 88 83 85 87 84 87 90
243 225 217 212 211 212 214 214 213 213 217 208 208 208 206 204 199 200 202 199 199 192 185 182 182 180 177 180 180 171 155 140 138 148 149 157 149 146 122 103 98 106 111 96 91 93 102 108 101
Height
10983 10982 10980 10978 10976 10974 10970 10965 10961 10955 10948 10941 10934 10929 10924 10921 10917 10915 10913 10913 10915 10918 10921 10925 10928 10933 10935 10941 10944 10947 10948 10950 10954 10956 10959 10963 10965 10967 10969 10970 10972 10975 10976 10976 10977 10976 10973 10970 10966
10984 10983 10982 10980 10978 10976 10972 10968 10963 10956 10949 10942 10936 10931 10926 10922 10918 10915 10914 10914 10915 10918 10920 10923 10927 10932 10935 10936 10939 10942 10945 10948 10951 10953 10956 10959 10961 10964 10966 10968 10970 10972 10973 10973 10974 10974 10971 10968 10964
10985 10984 10984 10982 10981 10976 10974 10970 10964 10958 10951 10944 10938 10933 10928 10924 10920 10917 10915 10915 10915 10917 10919 10922 10926 10930 10933 10936 10938 10941 10944 10945 10947 10950 10953 10956 10958 10961 10961 10963 10965 10968 10969 10971 10971 10972 10969 10967 10965
10985 10985 10986 10984 10984 10982 10978 10973 10966 10961 10953 10947 10941 10936 10930 10927 10922 10919 10917 10916 10915 10916 10917 10920 10922 10924 10928 10931 10935 10937 10940 10942 10944 10946 10949 10952 10953 10955 10958 10961 10964 10967 10968 10969 10968 10968 10968 10966 10961
10986 10986 10987 10989 10988 10983 10980 10974 10968 10962 10957 10951 10945 10939 10934 10929 10924 10920 10917 10916 10917 10916 10916 10917 10919 10922 10924 10927 10930 10932 10935 10938 10940 10943 10945 10947 10951 10953 10955 10958 10962 10963 10964 10965 10965 10965 10966 10962 10958
10986 10987 10987 10986 10985 10983 10980 10975 10970 10965 10960 10954 10949 10941 10936 10930 10925 10920 10918 10915 10914 10916 10917 10917 10919 10920 10922 10924 10925 10927 10931 10935 10938 10940 10942 10946 10949 10951 10953 10956 10959 10960 10961 10963 10961 10962 10960 10957 10954
10986 10986 10986 10986 10985 10982 10981 10977 10972 10968 10962 10958 10952 10944 10937 10932 10926 10921 10919 10916 10915 10915 10916 10917 10918 10919 10920 10921 10923 10925 10929 10932 10934 10937 10941 10944 10947 10949 10950 10953 10956 10957 10959 10960 10960 10959 10956 10953 10951
10984 10986 10986 10986 10986 10984 10982 10979 10975 10970 10965 10960 10954 10947 10940 10935 10928 10922 10920 10917 10916 10916 10915 10916 10917 10918 10919 10921 10921 10924 10927 10930 10933 10936 10938 10941 10944 10945 10946 10949 10952 10955 10956 10956 10956 10955 10953 10950 10948
10983 10986 10986 10986 10985 10985 10983 10980 10977 10973 10968 10964 10957 10950 10944 10938 10931 10925 10921 10919 10917 10917 10916 10916 10917 10918 10918 10919 10920 10922 10924 10927 10930 10932 10935 10938 10942 10942 10943 10945 10948 10951 10951 10952 10952 10950 10948 10946 10947
10982 10983 10984 10984 10985 10986 10984 10982 10979 10976 10971 10967 10961 10954 10947 10941 10934 10929 10925 10921 10919 10919 10917 10917 10917 10917 10918 10920 10920 10921 10923 10925 10927 10929 10932 10935 10937 10940 10943 10944 10946 10947 10949 10949 10948 10947 10947 10948 10947
10977 10979 10982 10983 10985 10986 10985 10983 10980 10978 10974 10970 10963 10957 10951 10944 10938 10933 10928 10925 10923 10921 10919 10917 10917 10917 10917 10919 10919 10921 10922 10923 10926 10928 10931 10934 10937 10939 10941 10943 10945 10947 10947 10947 10947 10947 10948 10948 10947
10974 10976 10979 10981 10984 10986 10985 10984 10981 10980 10976 10971 10966 10961 10955 10948 10942 10937 10931 10928 10925 10922 10920 10918 10917 10915 10915 10916 10918 10920 10922 10924 10926 10929 10932 10935 10936 10938 10941 10944 10947 10948 10948 10948 10948 10949 10949 10948 10947
10970 10973 10976 10979 10981 10984 10984 10984 10983 10981 10977 10974 10970 10965 10959 10952 10946 10941 10935 10931 10928 10925 10923 10921 10919 10917 10917 10917 10918 10921 10923 10925 10927 10930 10932 10933 10937 10941 10946 10949 10952 10957 10953 10951 10950 10949 10949 10948 10946
10966 10970 10972 10975 10979 10982 10984 10984 10983 10981 10979 10976 10973 10968 10963 10957 10950 10945 10940 10935 10931 10929 10927 10924 10922 10920 10919 10920 10921 10923 10925 10927 10930 10932 10934 10937 10940 10947 10960 10964 10957 10956 10954 10951 10951 10950 10948 10947 10947
10962 10966 10969 10972 10976 10980 10983 10984 10984 10982 10982 10979 10975 10971 10966 10961 10955 10950 10945 10940 10936 10933 10931 10928 10926 10923 10923 10925 10926 10928 10930 10932 10935 10937 10939 10941 10944 10949 10967 10950 10959 10954 10953 10952 10950 10949 10949 10950 10949
10957 10962 10966 10969 10973 10977 10982 10983 10984 10982 10983 10981 10977 10974 10970 10966 10960 10955 10950 10945 10941 10938 10936 10933 10931 10930 10930 10931 10932 10934 10935 10937 10939 10941 10942 10945 10947 10949 10953 10956 10956 10955 10953 10953 10952 10952 10953 10954 10956
10947 10956 10960 10964 10969 10976 10979 10982 10982 10983 10983 10983 10979 10976 10974 10971 10964 10959 10955 10950 10947 10943 10940 10937 10936 10936 10936 10936 10937 10938 10940 10941 10943 10944 10946 10948 10950 10952 10956 10958 10961 10960 10958 10956 10957 10957 10957 10960 10964
10937 10948 10951 10959 10966 10973 10976 10979 10979 10981 10983 10983 10981 10979 10977 10975 10969 10964 10960 10955 10952 10948 10945 10942 10941 10941 10941 10942 10942 10942 10944 10946 10947 10948 10951 10952 10955 10959 10961 10965 10969 10975 10969 10963 10962 10963 10964 10968 10971
10926 10935 10947 10953 10959 10966 10970 10972 10978 10980 10983 10984 10984 10983 10979 10977 10974 10969 10966 10961 10957 10955 10951 10948 10947 10947 10947 10948 10947 10948 10950 10951 10952 10954 10957 10958 10961 10962 10966 10973 10969 10992 10984 10971 10969 10969 10972 10976 10977
10919 10927 10935 10944 10951 10959 10964 10967 10973 10976 10980 10983 10985 10984 10982 10982 10979 10975 10972 10967 10963 10960 10957 10954 10952 10952 10954 10954 10954 10955 10956 10958 10959 10962 10963 10966 10968 10969 10971 10980 10969 10949 10994 10980 10976 10977 10979 10981 10980
10909 10916 10924 10938 10946 10951 10957 10962 10967 10972 10977 10981 10984 10985 10985 10985 10982 10980 10977 10973 10970 10967 10964 10962 10960 10960 10961 10961 10961 10961 10963 10964 10966 10968 10969 10971 10973 10974 10976 10983 10989 10994 11007 10991 10982 10981 10983 10985 10983
10895 10906 10916 10925 10933 10943 10951 10956 10961 10968 10973 10977 10981 10984 10986 10985 10986 10984 10982 10979 10976 10974 10971 10969 10966 10967 10968 10969 10970 10970 10969 10971 10972 10973 10974 10975 10977 10979 10981 10983 10987 10996 10994 11002 10987 10985 10986 10988 10988
10888 10900 10906 10916 10925 10936 10941 10949 10956 10963 10969 10974 10978 10983 10985 10984 10986 10987 10986 10984 10981 10979 10978 10977 10974 10974 10974 10975 10977 10976 10977 10978 10978 10978 10979 10979 10980 10982 10983 10985 10986 10988 10991 10989 10987 10987 10988 10989 10992
10880 10887 10898 10906 10914 10924 10932 10940 10949 10956 10964 10969 10974 10979 10983 10983 10985 10987 10987 10986 10987 10984 10983 10983 10981 10980 10980 10981 10982 10982 10982 10982 10981 10982 10983 10983 10983 10985 10986 10986 10986 10987 10988 10988 10988 10989 10990 10991 10993
10867 10878 10887 10895 10903 10908 10921 10931 10940 10948 10957 10963 10969 10975 10979 10982 10983 10985 10988 10987 10989 10988 10988 10988 10988 10987 10987 10987 10987 10988 10987 10988 10988 10988 10988 10988 10988 10989 10990 10990 10989 10989 10989 10989 10990 10991 10992 10993 10995
10854 10865 10873 10879 10888 10898 10912 10919 10932 10938 10949 10956 10963 10969 10974 10978 10981 10983 10986 10987 10990 10991 10991 10992 10992 10991 10992 10992 10992 10992 10992 10992 10993 10993 10994 10995 10995 10996 10996 10996 10996 10995 10994 10994 10994 10994 10994 10995 10997
10840 10850 10858 10865 10879 10887 10901 10909 10919 10926 10939 10948 10955 10963 10968 10974 10978 10981 10983 10985 10988 10992 10992 10993 10994 10994 10994 10996 10997 10997 10997 10997 10997 10998 10999 11000 11001 11002 11001 11001 11002 11001 11001 11000 10999 10999 10999 11000 11001
10823 10834 10842 10855 10864 10875 10888 10897 10911 10915 10930 10940 10948 10956 10964 10969 10974 10977 10981 10984 10986 10990 10992 10994 10994 10996 10997 10997 10999 11000 11000 11001 11002 11002 11003 11004 11005 11006 11006 11007 11007 11008 11008 11008 11008 11007 11006 11006 11006
10809 10814 10827 10835 10857 10865 10873 10883 10893 10902 10916 10930 10939 10950 10956 10962 10969 10973 10977 10981 10984 10987 10990 10993 10994 10995 10996 10997 10999 11001 11002 11003 11004 11005 11006 11007 11009 11010 11011 11012 11012 11012 11012 11013 11013 11014 11013 11013 11013
10794 10801 10811 10826 10834 10840 10854 10862 10874 10888 10901 10918 10929 10939 10945 10953 10961 10967 10972 10977 10981 10984 10988 10991 10992 10994 10996 10998 10999 11001 11003 11004 11005 11007 11008 11009 11011 11012 11013 11014 11016 11017 11017 11017 11017 11017 11017 11017 11017